Location: Bu�n Treun
(12.1333°N, 108.3167°E)
Time: 23:29:14
(UTC+00:00)

ARGOS - Pass Details

Date: 13 July 2020
Orbit: 819 x 835 km, 98.5° (Epoch: 14 August)

Event Time Altitude Azimuth Distance (km) Brightness Sun altitude
Exits shadow 13:07:10 21° 196° (SSW) 1,775 4.7 -25.2°
Maximum altitude 13:10:26 45° 259° (W) 1,118 4.1 -25.9°
Drops below altitude 10° 13:15:36 10° 331° (NNW) 2,440 6.4 -26.9°
Sets 13:18:03 0° 337° (NNW) 3,373 7.1 -27.4°
